Weather in Ilyinskoye

Russia / Kostroma Oblast     58°56′09″N   47°22′51″E
temp.,
°C
wind,
m/s
gust,
m/s
humid.,
%
clouds,
%
prec.,
mm/h
press.,
hPa
HPBL,
m
17 may, mon
mon1700:00+14sw23870 0.0 101264
03:00+12sw26912 0.0 1014113
06:00+16wsw310770 0.0 1014409
09:00+20w47600 0.0 10151122
12:00+22w584859 0.0 10161942
15:00+22wnw575017 0.0 10171695
18:00+20nw2563100 0.0 1017379
21:00+15nnw128047 0.0 101811
18 may, tue
tue1800:00+12ne368721 0.0 1020112
03:00+11ene2690100 0.0 1021104
06:00+14e2478100 0.0 1021181
09:00+18e235999 0.0 1021632
12:00+22ese2345100 0.0 10211123
15:00+23ese334041 0.0 10201228
18:00+21ese255428 0.0 1020199
21:00+15ese367335 0.0 102197
19 may, wed
wed1900:00+13se398180 0.0 1021161
03:00+12se298885 0.0 1021169
06:00+16se3107458 0.0 1021296
09:00+21sse475358 0.0 1021814
12:00+24se46396 0.0 10201383
15:00+25sse46355 0.0 10201572
18:00+22se374959 0.0 1019341
21:00+16se2473100 0.0 102061
20 may, thu
thu2000:00+14sse3127828 0.0 1019231
03:00+12sse3118210 0.0 1019216
06:00+16se39675 0.0 1019264
09:00+22sse47517 0.0 1018747
12:00+25sse57363 0.0 10171750
15:00+25sse583314 0.0 10161846
18:00+22sse48477 0.0 1015957
21:00+15se3116815 0.0 1015207
21 may, fri
fri2100:00+14se312725 0.0 1014266
03:00+12se311790 0.0 1014219
06:00+16se41066100 0.0 1013324
09:00+20se58470 0.0 1011956
12:00+23sse684593 0.0 10102538
15:00+18s5978100 2.1 1010786
18:00+16sse4886100 2.5 1009380
21:00+14sw51386100 3.6 1009553